This is the latest recevied weather packets stored in our database for station/object N7CW. If no packets are shown the sender has not sent any weather packets the latest 10 day(s).
| Time | Temp. | Humidity | Pressure | Rain* | Wind** | Luminosity | Snow |
|---|---|---|---|---|---|---|---|
| 1777240101 | 10° C | 51% | 1011.4 hPa | 0 mm | - | 558 W/m² | - |
| 1777239799 | 10° C | 50% | 1011.6 hPa | 0 mm | - | 235 W/m² | - |
| 1777239495 | 10.56° C | 49% | 1011.5 hPa | 0 mm | - | 274 W/m² | - |
| 1777239192 | 10° C | 51% | 1011.8 hPa | 0 mm | - | 250 W/m² | - |
| 1777238889 | 10° C | 51% | 1011.5 hPa | 0 mm | - | 392 W/m² | - |
| 1777238586 | 10.56° C | 49% | 1011.5 hPa | 0 mm | - | 294 W/m² | - |
| 1777238282 | 10° C | 51% | 1011.4 hPa | 0 mm | - | 321 W/m² | - |
| 1777237980 | 10° C | 51% | 1011.4 hPa | 0 mm | - | 508 W/m² | - |
| 1777237675 | 10° C | 51% | 1011.4 hPa | 0 mm | - | 519 W/m² | - |
| 1777237374 | 10° C | 51% | 1011.5 hPa | 0 mm | - | 300 W/m² | - |
| 1777237071 | 10.56° C | 50% | 1011.3 hPa | 0 mm | - | 384 W/m² | - |
| 1777236769 | 10° C | 51% | 1011.6 hPa | 0 mm | - | 370 W/m² | - |
| 1777236467 | 10° C | 50% | 1011.5 hPa | 0 mm | - | 324 W/m² | - |
| 1777236164 | 10.56° C | 49% | 1011.4 hPa | 0 mm | - | 306 W/m² | - |
| 1777235860 | 10° C | 51% | 1011.3 hPa | 0 mm | - | 348 W/m² | - |
| 1777235557 | 10.56° C | 49% | 1011.5 hPa | 0 mm | - | 340 W/m² | - |
| 1777235253 | 10° C | 49% | 1011.4 hPa | 0 mm | - | 301 W/m² | - |
| 1777234950 | 10.56° C | 49% | 1011.3 hPa | 0 mm | - | 409 W/m² | - |
| 1777234646 | 10° C | 49% | 1011.2 hPa | 0 mm | - | 374 W/m² | - |
| 1777234341 | 11.11° C | 47% | 1011.2 hPa | 0 mm | - | 961 W/m² | - |
| 1777234037 | 10.56° C | 48% | 1011.4 hPa | 0 mm | - | 599 W/m² | - |
| 1777233734 | 10.56° C | 50% | 1011.2 hPa | 0 mm | - | 389 W/m² | - |
| 1777233429 | 10.56° C | 50% | 1011.3 hPa | 0 mm | - | 744 W/m² | - |
| 1777233123 | 11.11° C | 48% | 1011.1 hPa | 0 mm | - | 911 W/m² | - |
| 1777232820 | 10° C | 50% | 1011.2 hPa | 0 mm | - | 896 W/m² | - |
* Rain latest hour (hover to see other rain measurements)
** Current wind speed in m/s (hover to see current wind gust speed)